TIME,PRES,T(CTD),SAL,OXYGEN,RAWTEMP,T(OPTODE),TCPHASE,CHECK
1344558512,312.0299987792969000,17.8306999206542970,36.5248985290527340,225.8760986328125000,264.1671142578125000,17.8446903228759770,31.1131706237792970,29482
1344558579,306.4500122070312500,17.8687992095947270,36.5309982299804700,226.0355072021484400,263.1199035644531000,17.8768196105957030,31.0911006927490230,55169
1344558652,300.6600036621094000,17.8936996459960940,36.5346984863281250,226.2068023681640600,262.2958984375000000,17.9021091461181640,31.0707702636718750,25686
1344558724,295.0199890136719000,17.9090995788574220,36.5364990234375000,226.1629028320312500,261.6512145996094000,17.9218902587890620,31.0643596649169920,24394
1344558806,288.8500061035156000,17.9475994110107420,36.5405006408691400,225.8840026855468800,260.5661010742187500,17.9551792144775400,31.0634803771972660,8873
1344558887,282.9800109863281000,17.9801998138427730,36.5443992614746100,225.8715057373047000,259.4354858398437500,17.9898700714111330,31.0485706329345700,23043
1344558978,276.8299865722656000,18.0263996124267580,36.5490989685058600,225.4826049804687500,257.9314880371094000,18.0360107421875000,31.0474700927734380,27881
1344559069,271.2600097656250000,18.0699996948242200,36.5525016784668000,224.9851989746093800,256.5910034179687500,18.0771408081054700,31.0541496276855470,7574
1344559176,265.9899902343750000,18.0951995849609380,36.5535011291503900,224.8016967773437500,255.7799987792968800,18.1020202636718750,31.0527801513671880,23176
1344559343,260.1199951171875000,18.1504001617431640,36.5570983886718750,224.4329986572265600,254.1488037109375000,18.1520595550537100,31.0487899780273440,17795
1344559487,253.5500030517578000,18.2327995300292970,36.5634002685546900,224.4002990722656200,251.3047027587890600,18.2392997741699220,31.0119209289550780,24481
1344559608,247.5800018310547000,18.3111000061035160,36.5703010559082000,224.5366973876953000,248.8495941162109400,18.3146095275878900,30.9712791442871100,39351
1344559729,241.6999969482422000,18.3628005981445300,36.5708007812500000,224.3002014160156200,247.1600036621093800,18.3664302825927730,30.9602603912353500,24501
1344559859,235.3200073242187500,18.4008007049560550,36.5686988830566400,225.1959075927734400,245.8838043212890600,18.4055690765380860,30.8975296020507800,18056
1344559971,229.6699981689453000,18.4139995574951170,36.5584983825683600,227.6295928955078000,245.3204040527343800,18.4228591918945300,30.7674503326416000,44576
1344560092,223.4600067138672000,18.3686008453369140,36.5287017822265600,232.9375000000000000,246.6896972656250000,18.3808593750000000,30.5244407653808600,57124
1344560203,217.5099945068359400,18.4295005798339840,36.5337982177734400,235.1569976806640600,244.9799957275390600,18.4333000183105470,30.3941802978515620,3216
1344560315,211.4400024414062500,18.4484996795654300,36.5271987915039060,237.4497070312500000,244.3509063720703000,18.4525909423828120,30.2761402130126950,61872
1344560427,205.2899932861328000,18.5200996398925780,36.5405006408691400,235.1782989501953000,241.8950042724609400,18.5279102325439450,30.3516006469726560,4533
1344560529,199.5899963378906200,18.5673007965087900,36.5410995483398440,234.7158966064453000,240.3258972167968800,18.5760402679443360,30.3524703979492200,10254
1344560641,193.5000000000000000,18.6098003387451170,36.5442008972168000,234.1573944091797000,239.0377044677734400,18.6155490875244140,30.3621501922607420,22489
1344560752,187.6399993896484400,18.6494007110595700,36.5467987060546900,233.5070953369140600,237.7059020996093800,18.6563892364501950,30.3755607604980470,64195
1344560873,181.4499969482422000,18.6917991638183600,36.5525016784668000,231.2501068115234400,236.3347015380859400,18.6984405517578120,30.4668292999267580,30858
1344560994,175.8000030517578000,18.7183990478515620,36.5503997802734400,230.9889068603515600,235.4703979492187500,18.7249507904052730,30.4678497314453120,21668
1344561143,169.7299957275390600,18.6968994140625000,36.5220985412597660,237.4409027099609400,236.0364990234375000,18.7075901031494140,30.1651802062988280,4418
1344561279,163.5099945068359400,18.7816009521484380,36.5350990295410160,239.6555023193359400,233.5019073486328000,18.7853202819824220,30.0269203186035160,30017
1344561382,157.2899932861328000,18.9123001098632800,36.5610008239746100,235.7543029785156200,229.2615051269531200,18.9153594970703120,30.1546497344970700,55936
1344561507,149.9199981689453000,18.9712009429931640,36.5465011596679700,238.1900024414062500,227.4611968994140600,18.9705696105957030,30.0151805877685550,2124
1344561628,145.0299987792968800,18.9909992218017580,36.5447998046875000,238.5706939697265600,226.5951995849609400,18.9971294403076170,29.9857292175292970,23462
1344561753,139.5099945068359400,19.0711002349853500,36.5544013977050800,238.2187957763672000,224.0534973144531200,19.0750808715820300,29.9685001373291000,3635
1344561855,133.0000000000000000,19.1341991424560550,36.5578994750976560,238.0760955810547000,221.8842010498047000,19.1415996551513670,29.9461898803710940,29057
1344561946,127.3899993896484400,19.1949005126953120,36.5587005615234400,239.5944061279297000,220.0428009033203000,19.1980705261230470,29.8508701324462900,51867
1344562081,122.1500015258789000,19.2446994781494140,36.5615005493164060,238.5821075439453000,218.3952026367187500,19.2486000061035160,29.8762893676757800,64050
1344562281,114.3300018310546900,19.2663002014160160,36.5550994873046900,241.6024932861328000,217.4434051513672000,19.2777900695800780,29.7231502532959000,19284
1344562392,108.2900009155273400,19.3267993927001950,36.5583000183105500,242.3049011230468800,215.4481964111328000,19.3389797210693360,29.6648101806640620,40641
1344562504,102.4199981689453100,19.4358005523681640,36.5684013366699200,244.5675048828125000,211.7216949462890600,19.4532699584960940,29.5123195648193360,22236
1344562613,96.6200027465820300,19.5506000518798830,36.5750007629394500,250.0856018066406200,208.4205932617187500,19.5545196533203120,29.2220993041992200,49414
1344562707,91.1800003051757800,19.6706008911132800,36.5831985473632800,253.5699005126953000,204.0677947998047000,19.6880302429199220,29.0128898620605470,59444
1344562800,85.1699981689453100,19.8365001678466800,36.5876007080078100,257.5989990234375000,199.1049041748047000,19.8402690887451170,28.7757301330566400,53098
1344562891,79.1299972534179700,20.1331005096435550,36.6081008911132800,258.1300964355469000,189.6549987792968800,20.1302108764648440,28.6317691802978500,18999
1344563053,74.8300018310546900,20.4148998260498050,36.6119995117187500,261.5367126464844000,181.1717071533203000,20.3905601501464840,28.3803901672363280,65498
1344563262,67.5999984741211000,21.0529994964599600,36.6763000488281250,264.6455078125000000,160.0802001953125000,21.0382709503173830,27.9860496520996100,36325
1344563355,62.6500015258789060,21.4062995910644530,36.6973991394043000,266.4413146972656000,148.9104003906250000,21.3815994262695300,27.7733497619628900,58943
1344563476,56.7400016784668000,21.5767993927001950,36.6996002197265600,268.4743041992187500,142.6967010498047000,21.5726890563964840,27.6144199371337900,17605
1344563634,51.5699996948242200,22.0412998199462900,36.6208000183105500,270.0038146972656000,129.1365966796875000,21.9900302886962900,27.3860492706298830,31436
1344563874,44.5600013732910160,22.7448005676269530,36.5387992858886700,266.8757934570312500,104.2463989257812500,22.7573394775390620,27.2045192718505860,12177
1344564032,39.6100006103515600,23.4550991058349600,36.4894981384277340,262.2770996093750000,83.6039733886718800,23.3952007293701170,27.1367893218994140,60957
1344564299,32.8199996948242200,24.3157997131347660,36.4221992492675800,256.5350952148437500,60.5203018188476560,24.1103897094726560,27.0902595520019530,31669
1344564519,27.0799999237060550,25.6576995849609380,36.3529014587402340,246.8258972167968800,17.2930603027343750,25.4562091827392580,26.9733695983886720,25606
1344564749,21.3500003814697270,26.9456005096435550,36.2638015747070300,238.2230987548828000,-28.6787700653076170,26.8987903594970700,26.7906799316406250,8787
1344564979,14.4700002670288090,27.9461994171142580,36.3074989318847660,228.3825073242187500,-60.6045799255371100,27.9087905883789060,26.8462390899658200,41316
1344565128,8.1400003433227540,28.2122001647949220,36.3522987365722660,224.5467987060547000,-71.4256668090820300,28.2528190612792970,26.8921108245849600,60893
1344565220,3.7699999809265137,0.0000000000000000,0.0000000000000000,223.3878936767578000,-78.4480972290039000,28.4765701293945300,26.8610801696777340,39674
